Regional Weather Roundup
Issued by NWS

Home | Current Version | Previous Version | Text Only | Print | Product List | Glossary On
Versions: 1 2 3 4 5 6 7 8 9 10 11 12 13 14 15 16 17 18 19 20 21 22 23 24 25 26 27 28 29 30 31 32 33 34 35 36 37 38 39 40 41 42 43 44 45 46 47 48 49 50
000
ASUS44 KFWD 180515
RWRTX
NORTH TEXAS HOURLY WEATHER ROUNDUP
NATIONAL WEATHER SERVICE FORT WORTH TX
1100 PM CST WED DEC 17 2014

NOTE: "FAIR" INDICATES FEW OR NO CLOUDS BELOW 12,000 FEET WITH NO
SIGNIFICANT WEATHER AND/OR OBSTRUCTIONS TO VISIBILITY.

TXZ118-119-180600-
DALLAS/FORT WORTH METROPLEX

CITY           SKY/WX    TMP DP  RH WIND       PRES   REMARKS
DFW AIRPORT    LGT RAIN  41  40  96 E7        30.16S FOG     WCI  36
DALLAS LOVE    LGT RAIN  42  40  92 E10       30.16F FOG     WCI  36
FTW MEACHAM    CLOUDY    44  42  93 E7        30.16R FOG
DAL-EXECUTIVE  LGT RAIN  44  41  89 E7        30.16S FOG
FTW-ALLIANCE   DRIZZLE   41  40  96 E5        30.16F FOG     WCI  38
FTW-SPINKS     LGT RAIN  44  43  97 E6        30.17F
ARLINGTON        N/A     44  32  62 MISG      30.16S
GRAND PRAIRIE  CLOUDY    43  43 100 E13       30.17F WCI  36
ADDISON        RAIN      42  42 100 E6        30.18S WCI  38
MESQUITE       CLOUDY    40  40  99 NE5       30.19R WCI  37
LANCASTER      DRIZZLE   42  40  92 NE3       30.20R
$$

TXZ091>094-102>105-117-120-121-131>134-180600-
NORTH CENTRAL TEXAS

CITY           SKY/WX    TMP DP  RH WIND       PRES   REMARKS
SHRMAN/DENISON CLOUDY    38  38 100 E6        30.18F WCI  34
GAINESVILLE    CLOUDY    38  37  98 E9        30.18F WCI  31
BOWIE          CLOUDY    39  38  99 SE8       30.13F FOG     WCI  33
BRIDGEPORT     CLOUDY    40  40 100 E7        30.16F WCI  36
DECATUR        CLOUDY    39  39 100 E9        30.14F FOG     WCI  33
DENTON         CLOUDY    40  39  97 E7        30.17S FOG     WCI  35
MCKINNEY       LGT RAIN  39  38  96 E7        30.18F WCI  34
GREENVILLE     LGT RAIN  39  37  93 NE6       30.20R WCI  35
ROCKWALL       DRIZZLE   40  40  99 E8        30.17S WCI  34
TERRELL        CLOUDY    44  41  89 NE7       30.19R FOG
WAXAHACHIE     LGT RAIN  42  42 100 NE8       30.18R WCI  37
CLEBURNE       CLOUDY    43  43 100 E9        30.16F FOG     WCI  37
GRANBURY       CLOUDY    45  43  93 E3        30.17S FOG
$$

TXZ083>090-098>101-113>116-127>130-139>142-154-155-180600-
WESTERN NORTH TEXAS

CITY           SKY/WX    TMP DP  RH WIND       PRES   REMARKS
WICHITA FALLS  CLOUDY    40  38  93 SE7       30.13R WCI  35
WF-KICKAPOO    CLOUDY    41  40  99 SE7       30.14R WCI  36
VERNON         CLOUDY    41  37  86 SE6       30.13R WCI  38
ABILENE        CLOUDY    49  45  86 SE7       30.08R
ABILENE-DYESS  CLOUDY    50  46  84 S7        30.06R
BRECKENRIDGE   CLOUDY    46  44  95 E7        30.11R
GRAHAM         CLOUDY    42  42  99 SE6       30.11S WCI  39
MINERAL WELLS  CLOUDY    43  42  97 SE8       30.12F FOG     WCI  38
STEPHENVILLE   CLOUDY    44  42  93 E3        30.15S
COMANCHE       CLOUDY    45  45 100 E5        30.13R FOG
BROWNWOOD      CLOUDY    48  46  93 SE3       30.12R FOG
COLEMAN        CLOUDY    48  48 100 CALM      30.11R FOG
BRADY          CLOUDY    48  48 100 S3        30.09S
$$

TXZ143>147-156>162-174-175-180600-
CENTRAL TEXAS

CITY           SKY/WX    TMP DP  RH WIND       PRES   REMARKS
WACO           CLOUDY    46  44  93 N7        30.16R
WACO-TSTC      CLOUDY    46  45  93 N5        30.17R
WACO-MCGREGOR  CLOUDY    46  39  76 N7        30.17R
HILLSBORO      CLOUDY    44  42  91 NE6       30.16R FOG
CORSICANA      CLOUDY    47  44  90 N5        30.18R
MEXIA          CLOUDY    46  45  96 N5        30.15R
HEARNE         CLOUDY    49  47  93 NW7       30.15R
CAMERON        CLOUDY    49  46  92 N7        30.14R
TEMPLE         CLOUDY    46  41  81 N9        30.13
KILLEEN        CLOUDY    46  45  93 N6        30.13S FOG
KILLEEN-SKYLRK CLOUDY    46  39  76 N6        30.13R
FORT HOOD      CLOUDY    46  46 100 N7        30.13S FOG
GATESVILLE     CLOUDY    46  46 100 CALM      30.17R
HAMILTON       CLOUDY    45  45 100 SE6       30.14S FOG
LAMPASAS       CLOUDY    48  47  97 CALM      30.12S FOG
$$

TXZ095>097-106>112-122>126-135>138-148>153-164>167-180600-
EAST TEXAS

CITY           SKY/WX    TMP DP  RH WIND       PRES   REMARKS
PARIS          CLOUDY    37  36  93 E8        30.22S WCI  31
SULPHUR SPRNGS CLOUDY    40  39  99 NE6       30.22F FOG     WCI  35
MOUNT PLEASANT CLOUDY    40  40  99 NE5       30.23R WCI  37
MINEOLA        CLOUDY    43  43 100 CALM      30.19F
TYLER          CLOUDY    45  42  89 NE9       30.17S
LONGVIEW       CLOUDY    44  41  89 E6        30.19S
MARSHALL       CLOUDY    46  43  91 CALM      30.22S
ATHENS         CLOUDY    43  43 100 E6        30.15F WCI  39
PALESTINE      CLOUDY    46  45  95 CALM      30.17R
JACKSONVILLE   CLOUDY    46  45  97 E7        30.17F FOG
HENDERSON      CLOUDY    44  44  99 NE5       30.19S
NACOGDOCHES    CLOUDY    46  45  93 CALM      30.19R
LUFKIN         CLOUDY    54  45  71 NE3       30.17R
$$

SUPPLEMENTAL OBSERVATIONS (CENTRAL)

CITY           SKY/WX    TMP DP  RH WIND       PRES   REMARKS
LAKE TEXOMA      N/A     37  36  93 E5          N/A  WCI  34
CADDO GRASSLND   N/A     37  34  87 SE5         N/A  WCI  34
PAT MAYSE LAKE   N/A     36  34  93 E8          N/A  WCI  29
GREENVILLE       N/A     37  34  87 NE7         N/A  WCI  32
CEDAR HILL       N/A     43  39  87 E2          N/A
PALESTINE        N/A     46  43  87 NE3         N/A
LAKE LIMESTONE   N/A     48  43  81 NE6         N/A
MCGREGOR         N/A     46  43  87 N5          N/A
TEMPLE           N/A     48  45  87 N6          N/A
$$

SUPPLEMENTAL OBSERVATIONS (WEST)

CITY           SKY/WX    TMP DP  RH WIND       PRES   REMARKS
MILLERS CREEK    N/A     43  37  81 SE8         N/A  WCI  38
POSSUM KINGDOM   N/A     43  39  87 SE9         N/A  WCI  37
LBJ GRASSLAND    N/A     39  36  87 E8          N/A  WCI  34
GRANBURY         N/A     45  41  87 E6          N/A
COMANCHE         N/A     45  43  93 E7          N/A
HAMBY            N/A     48  43  81 SE7         N/A
IVIE RESERVOIR   N/A     50  46  87 E5          N/A
COLORADO BEND    N/A     48  46  93 E1          N/A
$$

SUPPLEMENTAL OBSERVATIONS (EAST)

CITY           SKY/WX    TMP DP  RH WIND       PRES   REMARKS
CLARKSVILLE      N/A     37  36  93 E5          N/A  WCI  34
TEXARKANA        N/A     39  36  87 NE5         N/A  WCI  36
LINDEN           N/A     39  36  87 NE2         N/A
CADDO LAKE       N/A     45  43  93 NE2         N/A
GILMER           N/A     43  39  87 E3          N/A
HENDERSON        N/A     45  41  87 E5          N/A
LUFKIN           N/A     48  45  87 MISG        N/A
N SABINE NF      N/A     48  45  87 MISG        N/A
S SABINE NF      N/A     52  45  76 E3          N/A
$$

SUPPLEMENTAL OBSERVATIONS ARE A COLLECTION OF AUTOMATED INSTRUMENTS
THAT ARE MAINTAINED BY A VARIETY OF FEDERAL AND STATE AGENCIES.
CERTAIN ELEMENTS...SUCH AS HUMIDITY VALUES AND SUSTAINED WIND
SPEEDS...MAY BE APPROXIMATED.




USA.gov is the U.S. government's official web portal to all federal, state and local government web resources and services.